Moline, Illinois, United States (61265)
Lat: 41.51N, Lon: 90.52W
Wx Zone: ILZ015
Local Info
Past Weather Observations for Today

NOTE: This archive is for the closest National Weather Service station to Moline. Information may differ from the station used for current weather conditions.

Click here for Long-term Archive

Time Weather Temperature Dewpoint Humidity Pressure Winds Precip Visibility
16:52
Clear
79°F / 26°C 66°F / 19°C 65% 30.06 in
(1018 mb)
NW 8.1 mph
(NW 13 kph)
- 10SM
15:52
Mostly Cloudy
79°F / 26°C 64°F / 18°C 61% 30.06 in
(1018 mb)
WNW 6.9 mph
(WNW 11 kph)
- 10SM
14:52
Partly Cloudy
81°F / 27°C 64°F / 18°C 58% 30.06 in
(1018 mb)
NW 4.6 mph
(NW 7 kph)
- 10SM
12:52
Partly Cloudy
79°F / 26°C 66°F / 19°C 65% 30.06 in
(1018 mb)
NW 8.1 mph
(NW 13 kph)
- 10SM
11:52
Partly Cloudy
79°F / 26°C 66°F / 19°C 65% 30.06 in
(1018 mb)
SW 4.6 mph
(SW 7 kph)
- 10SM
10:52
Clear
77°F / 25°C 66°F / 19°C 69% 30.06 in
(1018 mb)
Calm - 10SM
09:52
Clear
77°F / 25°C 64°F / 18°C 65% 30.06 in
(1018 mb)
Variable 4.6 mph
(Variable 7 kph)
- 10SM
08:52
Partly Cloudy
75°F / 24°C 64°F / 18°C 69% 30.04 in
(1017 mb)
NE 3.5 mph
(NE 6 kph)
- 10SM
07:52
Mostly Cloudy
73°F / 23°C 64°F / 18°C 74% 30.04 in
(1017 mb)
NE 6.9 mph
(NE 11 kph)
- 10SM
06:52
Overcast
73°F / 23°C 66°F / 19°C 78% 30.04 in
(1017 mb)
N 4.6 mph
(N 7 kph)
- 10SM
06:22
Overcast
73°F / 23°C 68°F / 20°C 83% 30.04 in
(1017 mb)
N 3.5 mph
(N 6 kph)
- 10SM
05:52
Overcast
72°F / 22°C 70°F / 21°C 94% 30.04 in
(1017 mb)
W 3.5 mph
(W 6 kph)
- 7SM
05:26
Mostly Cloudy
72°F / 22°C 70°F / 21°C 94% 30.01 in
(1016 mb)
NW 3.5 mph
(NW 6 kph)
- 8SM
04:52
Overcast
Fog And Mist
72°F / 22°C 70°F / 21°C 94% 30.01 in
(1016 mb)
W 6.9 mph
(W 11 kph)
- 6SM
04:49
Overcast
Fog And Mist
72°F / 22°C 70°F / 21°C 94% 30.01 in
(1016 mb)
WNW 6.9 mph
(WNW 11 kph)
- 6SM
04:09
Overcast
Fog And Mist
72°F / 22°C 70°F / 21°C 94% 30.01 in
(1016 mb)
W 8.1 mph
(W 13 kph)
- 6SM
03:52
Overcast
72°F / 22°C 70°F / 21°C 94% 29.98 in
(1015 mb)
W 8.1 mph
(W 13 kph)
- 9SM
03:26
Overcast
72°F / 22°C 70°F / 21°C 94% 29.98 in
(1015 mb)
W 4.6 mph
(W 7 kph)
- 10SM
02:52
Overcast
72°F / 22°C 70°F / 21°C 94% 30.01 in
(1016 mb)
SSW 4.6 mph
(SSW 7 kph)
0.01 in
(0.25 mm)
10SM
02:30
Overcast
72°F / 22°C 68°F / 20°C 88% 30.01 in
(1016 mb)
SSW 5.8 mph
(SSW 9 kph)
0.01 in
(0.25 mm)
10SM
01:52
Mostly Cloudy
Light Rain
72°F / 22°C 70°F / 21°C 94% 30.01 in
(1016 mb)
Calm 0.02 in
(0.51 mm)
10SM
01:27
Partly Cloudy
Light Rain
72°F / 22°C 70°F / 21°C 94% 30.01 in
(1016 mb)
SSW 4.6 mph
(SSW 7 kph)
0.01 in
(0.25 mm)
7SM
00:52
Overcast
Light Rain
72°F / 22°C 70°F / 21°C 94% 30.01 in
(1016 mb)
SW 6.9 mph
(SW 11 kph)
0.01 in
(0.25 mm)
9SM
Time Weather Temperature Dewpoint Humidity Pressure Winds Precip Visibility


Weather for websites

WeatherForYou.com, LLC is not responsible for any damages or problems caused by this service. Current weather conditions are obtained from the closest station including government and personal stations which may have varying degrees of accuracy. Weather forecasts are derived from the NOAA NDFD. Like all things, this site belongs to Jesus Christ... He just trusts us to maintain it. If you have any questions or comments email webmaster@weatherforyou.com

Copyright © 2016, WeatherForYou.com LLC. All rights reserved.